This is the latest recevied weather packets stored in our database for station/object IR3AS. If no packets are shown the sender has not sent any weather packets the latest 10 day(s).
| Time | Temp. | Humidity | Pressure | Rain* | Wind** | Luminosity | Snow |
|---|---|---|---|---|---|---|---|
| 1787752504 | 18.33° C | 68% | 867.6 hPa | 0 mm | - | - | - |
| 1787752203 | 18.33° C | 68% | 867.2 hPa | 0 mm | - | - | - |
| 1787751903 | 18.33° C | 68% | 867.3 hPa | 0 mm | - | - | - |
| 1787751603 | 17.78° C | 68% | 867.7 hPa | 0 mm | - | - | - |
| 1787751303 | 18.33° C | 66% | 867.6 hPa | 0 mm | - | - | - |
| 1787751003 | 18.89° C | 64% | 867.6 hPa | 0 mm | - | - | - |
| 1787750703 | 19.44° C | 63% | 867.6 hPa | 0 mm | - | - | - |
| 1787750403 | 20° C | 64% | 867.3 hPa | 0 mm | - | - | - |
| 1787750104 | 20.56° C | 62% | 867.8 hPa | 0 mm | - | - | - |
| 1787749803 | 21.11° C | 61% | 867.5 hPa | 0 mm | - | - | - |
| 1787749503 | 21.67° C | 60% | 867.7 hPa | 0 mm | - | - | - |
| 1787749203 | 22.22° C | 58% | 867.9 hPa | 0 mm | - | - | - |
| 1787748903 | 22.78° C | 61% | 868.4 hPa | 0 mm | - | - | - |
| 1787748603 | 21.67° C | 62% | 868.4 hPa | 0 mm | - | - | - |
| 1787748303 | 21.67° C | 60% | 868.2 hPa | 0 mm | - | - | - |
| 1787748003 | 22.22° C | 61% | 868 hPa | 0 mm | - | - | - |
| 1787747703 | 22.22° C | 61% | 867.9 hPa | 0 mm | - | - | - |
| 1787747403 | 22.22° C | 62% | 867.8 hPa | 0 mm | - | - | - |
| 1787747103 | 21.11° C | 64% | 868.1 hPa | 0 mm | - | - | - |
| 1787746803 | 21.11° C | 63% | 868.1 hPa | 0 mm | - | - | - |
| 1787746503 | 21.11° C | 63% | 867.9 hPa | 0 mm | - | - | - |
| 1787746203 | 20.56° C | 66% | 867.9 hPa | 0 mm | - | - | - |
| 1787745903 | 20° C | 67% | 867.9 hPa | 0 mm | - | - | - |
| 1787745603 | 18.89° C | 69% | 868 hPa | 0 mm | - | - | - |
| 1787745303 | 18.33° C | 69% | 868 hPa | 0 mm | - | - | - |
* Rain latest hour (hover to see other rain measurements)
** Current wind speed in m/s (hover to see current wind gust speed)